Terminal Aerodrome Forecast
Issued by NWS

Home | Current Version | Previous Version | Graphics & Text | Print | Product List | Glossary On
Versions: 1 2 3 4 5 6 7 8 9 10 11 12 13 14 15
000
FTUS43 KMPX 301934 AAA
TAFRWF
TAF AMD
KRWF 301934Z 3020/3118 30011KT P6SM SKC
     FM302330 25004KT P6SM SKC
     FM311600 30010G16KT P6SM SKC=

USA.gov is the U.S. government's official web portal to all federal, state and local government web resources and services.